Location: *
(46.0770°N, 1.6444°E)
Time: 12:06:17
(UTC+00:00)

Terra - Pass Details

Date: 16 September 2019
Orbit: 701 x 703 km, 98.2° (Epoch: 19 October)

Event Time Altitude Azimuth Distance (km) Brightness Sun altitude
Exits shadow 21:58:00 25° 342° (NNW) 1,425 3.9 -35.7°
Drops below altitude 10° 21:59:56 10° 344° (NNW) 2,181 5.1 -35.9°
Sets 22:02:13 0° 346° (NNW) 3,104 6.0 -36.1°
